Theta_e
329 328 328 322 311 314 312 314 320 319 320 325 325 323 322 325 324 328 354 355 351 359 362 363 366 367 367 367 365 364 362 361 362 362 362 362 362 363 364 364 362 359 357 357 356 355 355 354 353
325 322 321 319 309 308 312 318 317 321 324 325 325 324 324 326 341 347 351 354 352 360 364 362 365 367 367 366 365 363 362 362 362 362 362 362 362 363 363 363 361 358 354 354 355 355 355 354 354
321 321 312 313 311 308 312 319 320 323 325 323 322 325 324 331 345 347 357 353 355 359 361 365 365 365 366 366 365 363 362 362 363 363 362 362 362 363 363 363 361 357 353 353 355 355 354 354 355
316 315 312 306 308 315 316 320 321 321 323 324 323 320 327 343 341 351 357 354 355 357 358 362 364 364 364 363 365 364 363 363 362 363 362 362 362 362 362 361 360 356 353 352 354 355 354 352 352
317 313 304 303 306 313 319 321 321 320 320 321 323 319 323 340 350 352 355 353 353 354 358 363 363 364 364 363 363 364 363 362 362 362 362 362 362 361 361 360 358 356 353 352 353 355 354 352 351
309 311 302 301 304 309 313 319 319 318 319 319 319 320 324 345 346 353 355 353 353 353 359 361 362 362 362 363 363 363 362 361 361 361 361 361 361 360 359 358 357 355 352 352 353 353 353 352 351
307 306 302 304 305 307 310 315 315 316 317 318 322 317 324 337 350 354 355 355 353 354 356 359 357 361 362 362 362 361 361 360 360 360 360 360 360 359 357 357 355 353 352 352 352 351 351 349 347
310 307 303 304 303 305 311 312 314 313 312 319 323 316 320 347 355 355 354 353 353 353 353 355 354 354 356 360 361 360 360 360 359 359 359 359 358 357 356 355 354 352 351 350 349 348 346 344 343
310 303 300 303 304 306 311 308 313 315 314 315 318 321 330 343 354 352 351 350 351 350 352 353 349 349 350 351 358 359 359 359 359 358 358 355 348 352 354 351 353 352 350 349 348 347 345 344 347
306 302 302 308 308 307 309 309 309 310 310 312 314 320 331 340 347 349 348 347 348 349 349 350 349 349 349 347 354 353 353 354 353 350 354 347 346 350 347 351 353 352 350 350 350 349 347 345 335
306 301 306 308 308 309 307 306 309 307 306 311 312 316 325 336 342 347 349 349 349 350 349 349 353 357 349 346 350 347 347 348 348 349 354 351 346 350 346 348 347 346 349 342 345 343 340 336 338
303 306 307 308 308 307 305 308 306 308 308 313 314 317 321 327 332 339 348 350 351 351 351 350 351 357 356 347 346 345 344 347 346 346 358 353 349 353 351 343 344 348 342 344 346 343 345 343 343
303 305 307 307 307 307 307 305 305 306 310 312 313 314 316 320 321 326 335 348 352 351 351 351 352 356 359 364 347 347 346 344 344 346 353 349 345 353 348 348 342 344 342 342 342 342 342 343 342
306 306 306 306 306 307 304 305 306 307 310 309 310 311 314 316 318 322 325 326 345 354 353 353 351 361 357 358 363 355 353 347 345 344 349 356 350 354 345 347 344 342 342 341 341 343 343 343 341
306 301 304 304 305 305 307 303 304 309 311 309 309 311 312 314 316 320 324 327 333 351 355 355 355 357 362 359 358 357 353 351 348 347 359 357 358 361 354 345 345 343 346 348 346 344 346 343 343
301 302 298 305 307 307 306 299 307 311 311 309 310 310 311 313 315 320 323 326 331 347 357 357 353 353 361 362 359 356 353 353 351 351 355 359 359 360 362 351 348 348 350 347 347 345 344 344 343
302 297 299 302 307 306 305 302 308 312 311 310 310 310 310 312 314 320 322 325 330 348 357 356 359 353 356 362 358 360 363 355 352 352 352 360 357 357 358 353 352 358 351 351 350 349 351 348 348
296 297 300 300 305 305 303 303 308 311 311 310 311 311 311 312 313 318 322 326 333 352 359 359 358 360 363 359 361 363 359 362 354 357 356 361 358 355 357 355 359 358 356 354 354 360 353 348 346
301 300 300 303 306 304 304 304 307 310 311 311 312 312 313 313 316 319 324 331 344 356 358 358 356 359 349 353 355 351 351 343 345 346 352 353 353 351 355 350 359 359 355 351 354 349 352 350 352
300 300 299 303 305 305 304 304 308 309 310 311 312 313 313 314 315 319 329 340 348 355 353 356 356 358 348 350 352 345 342 350 347 344 346 342 344 344 342 345 344 346 350 355 357 356 352 351 353
299 299 299 299 303 305 303 301 304 308 310 311 312 313 314 315 314 320 326 331 343 347 346 353 355 353 347 347 348 351 347 346 346 346 347 342 343 338 340 345 345 349 355 357 353 353 351 344 345
297 302 301 301 299 295 304 294 304 307 307 309 311 311 314 316 316 320 324 328 334 334 334 344 356 346 345 341 340 343 337 335 332 332 349 347 345 347 350 351 350 352 360 359 356 352 352 348 339
300 304 302 301 299 299 299 297 301 307 304 307 310 311 315 316 319 320 321 324 327 330 330 344 354 352 346 348 345 345 343 337 336 345 352 352 353 353 350 350 351 355 355 352 353 350 351 344 337
305 302 302 302 300 293 298 297 298 302 305 307 311 313 315 317 318 321 323 324 325 326 328 335 340 346 356 352 351 352 350 347 343 350 347 346 347 348 352 353 353 352 349 348 343 347 348 345 341
303 300 292 291 291 291 300 297 300 305 308 309 311 312 315 317 320 321 323 325 325 324 326 327 333 339 346 353 355 354 357 354 356 356 348 344 351 346 350 351 349 344 347 345 346 346 343 345 339
301 300 294 288 289 292 299 294 300 307 311 312 311 313 316 317 320 321 325 326 326 325 326 329 330 336 344 346 351 353 354 353 353 357 358 349 348 348 350 347 345 342 341 343 345 337 335 342 334
300 297 303 296 298 293 295 300 306 309 309 309 310 313 315 317 319 321 325 328 329 331 331 334 336 339 345 347 349 350 352 351 352 357 356 350 351 340 343 341 340 339 338 338 339 334 337 336 336
302 303 296 297 289 287 293 295 296 303 306 309 310 312 315 316 318 322 325 329 332 335 337 339 339 341 346 348 348 347 344 348 352 350 347 345 342 338 341 338 339 338 337 337 339 335 335 334 328
300 298 300 300 297 290 289 292 306 305 307 309 311 313 314 315 316 318 322 326 328 330 331 333 334 336 338 341 343 342 341 340 340 339 337 339 340 337 335 335 335 335 335 336 339 336 330 329 332
304 301 301 296 294 294 294 293 309 310 310 311 311 313 315 316 317 318 319 320 322 324 326 328 330 328 330 332 333 334 335 336 337 336 336 337 337 336 333 332 332 331 331 333 331 328 327 327 328
Wind_Speed
16 16 11 10 9 9 16 18 4 2 6 6 6 8 10 8 13 7 2 7 16 20 20 18 15 15 14 14 16 16 16 15 15 15 14 13 12 12 11 11 10 10 9 9 8 8 8 8 9
15 9 9 9 10 14 13 19 9 14 9 2 6 4 6 6 13 13 10 6 16 19 18 18 17 14 15 15 14 16 16 15 15 15 14 13 12 11 12 10 10 9 8 8 8 8 7 7 8
13 12 10 10 16 18 17 10 5 11 6 6 5 3 6 6 11 5 9 12 16 17 18 17 17 16 15 15 14 16 17 16 16 16 14 13 12 11 10 9 8 8 7 7 8 7 6 6 5
8 8 9 15 21 20 22 17 5 5 6 5 4 9 1 8 3 7 9 13 17 18 18 19 15 18 14 16 15 16 17 17 16 15 14 13 12 11 10 9 8 7 6 6 7 6 4 4 3
11 10 13 18 25 25 19 14 3 13 9 7 5 8 6 11 5 3 10 13 15 17 18 18 16 16 16 16 16 16 17 16 16 15 14 13 12 12 11 10 8 7 6 5 6 6 4 3 2
10 12 15 18 24 23 24 19 13 14 14 9 10 13 10 10 4 7 12 14 15 16 18 18 17 16 17 16 16 16 16 16 16 15 14 13 11 11 11 10 8 6 6 6 6 5 4 3 3
16 13 18 22 21 21 20 20 18 13 19 17 12 10 8 7 9 5 11 13 14 15 15 16 18 16 16 15 15 16 16 16 16 14 14 13 13 12 11 10 9 8 7 6 6 5 4 4 4
13 14 23 19 19 23 16 11 7 13 17 18 14 11 12 13 6 7 11 14 15 15 15 17 17 18 16 15 14 15 16 16 15 15 14 12 12 12 12 10 10 9 8 7 6 6 6 6 7
9 15 17 21 22 17 11 10 12 10 16 8 13 16 4 5 2 8 11 14 14 15 16 16 18 17 16 16 14 13 15 15 14 13 12 12 11 12 14 11 15 12 10 9 8 7 8 8 10
16 14 22 19 14 14 8 12 8 13 15 16 16 18 4 4 7 9 12 14 17 18 18 17 17 17 16 13 15 14 13 11 11 13 14 11 12 12 12 13 13 11 11 11 11 10 9 9 9
18 21 18 17 8 12 15 16 13 15 19 19 17 19 14 10 8 10 13 15 16 17 15 17 16 16 18 14 12 9 9 9 10 14 12 12 10 10 9 8 8 8 11 9 11 10 9 12 10
21 18 18 19 9 13 16 16 18 18 19 18 19 19 13 12 10 12 14 15 15 17 17 16 18 14 14 11 12 12 11 11 10 13 13 10 8 7 8 8 11 9 9 10 10 8 8 6 7
21 19 16 15 16 17 17 19 20 21 20 18 20 22 20 13 14 12 10 13 15 17 18 18 18 15 12 10 11 11 11 11 13 13 14 12 12 9 9 8 8 9 9 9 7 8 6 8 9
15 19 20 17 17 16 18 20 18 16 14 18 22 24 24 20 19 18 17 16 17 15 18 17 18 15 14 12 10 9 9 12 11 12 13 14 11 9 10 9 9 8 8 8 8 7 7 8 9
15 16 17 19 19 18 13 17 22 21 20 21 21 20 25 26 25 25 20 17 14 15 14 18 17 17 15 15 11 10 10 11 12 12 13 15 12 9 10 10 10 9 8 7 6 5 6 7 8
18 18 18 20 23 19 13 14 11 11 13 17 20 20 22 23 25 22 19 16 15 17 14 15 16 19 17 14 12 10 11 12 11 11 11 14 14 11 10 8 9 8 7 7 8 9 9 10 9
17 17 21 15 13 8 15 13 10 8 8 11 13 16 18 21 24 22 21 18 14 16 13 15 15 17 18 14 12 11 9 9 10 10 10 14 14 14 9 9 8 6 6 7 7 8 9 8 8
16 18 19 14 12 12 14 16 14 13 14 10 10 13 17 19 21 21 21 17 12 16 13 11 12 12 14 11 9 4 7 5 8 7 6 7 6 4 7 6 7 7 5 5 6 4 7 7 7
15 18 20 16 10 7 12 12 14 11 14 9 9 10 13 14 15 20 16 8 12 8 11 12 8 11 4 3 3 4 3 2 7 12 10 2 2 4 4 5 5 6 7 8 4 5 9 9 7
21 14 11 10 11 9 13 15 11 13 12 9 7 7 10 11 16 18 9 11 14 12 9 13 13 12 5 1 4 1 3 5 6 7 10 3 3 3 3 3 5 9 8 7 7 5 7 7 8
19 18 15 13 12 11 12 15 18 15 8 7 6 7 5 7 14 15 17 14 16 16 16 16 16 15 12 5 1 8 6 1 7 8 9 11 17 8 7 11 13 15 6 4 7 6 6 9 3
18 17 16 12 11 13 19 13 12 9 5 10 5 3 7 10 11 19 17 19 17 17 17 15 18 19 13 16 13 19 15 10 10 8 11 14 17 12 14 17 14 7 6 9 7 6 5 5 4
16 11 15 17 16 15 16 9 11 15 9 11 7 3 6 4 8 9 12 12 15 16 11 15 21 25 24 23 19 16 19 14 10 6 10 11 12 15 17 10 7 10 7 6 3 5 4 5 6
14 13 10 11 12 15 17 15 14 12 13 12 11 5 5 4 2 4 4 7 11 13 12 13 12 11 19 24 25 23 19 14 11 8 10 11 10 10 13 13 9 8 7 8 6 5 4 4 5
19 11 12 13 14 13 17 18 14 7 5 5 9 4 3 5 7 7 8 9 8 10 12 7 12 13 13 16 18 15 13 15 15 10 12 11 9 7 12 10 11 10 8 7 6 6 4 3 5
20 16 14 14 12 14 21 13 8 4 13 6 3 2 1 5 9 8 9 7 7 4 6 9 10 12 14 13 12 10 13 9 11 10 8 11 11 12 15 12 11 9 9 7 6 6 6 5 6
17 18 18 18 13 8 6 8 9 9 12 8 6 2 4 4 6 8 9 9 7 6 3 6 6 9 11 12 10 10 9 11 11 11 6 7 6 9 10 11 9 9 9 10 8 7 5 6 6
21 14 12 9 15 15 14 18 8 14 13 11 9 6 3 2 6 8 8 8 9 9 8 7 3 4 9 5 5 8 10 8 8 8 9 7 5 6 10 8 8 8 9 9 8 7 9 8 8
16 20 11 15 12 11 14 3 2 6 13 11 7 7 4 1 6 8 9 9 12 11 12 10 10 11 8 8 7 6 6 8 9 9 8 7 5 4 7 7 8 9 10 10 8 9 10 10 10
14 9 19 12 17 3 11 3 7 6 3 3 5 7 4 4 3 7 8 8 9 10 11 10 11 11 8 7 6 5 6 6 5 4 5 5 5 5 5 7 9 10 12 11 12 13 14 14 13
Wind_Direction
266 238 246 261 247 230 256 239 335 351 214 55 329 312 339 305 351 88 103 120 128 132 150 156 135 140 145 152 154 149 145 147 147 141 145 144 148 147 136 130 129 130 132 130 128 125 125 124 119
279 251 242 274 253 251 234 246 147 240 79 5 280 304 298 43 35 108 139 152 141 133 151 159 139 141 145 150 152 149 145 149 146 145 146 147 151 148 140 134 135 137 138 137 134 132 135 128 124
253 248 253 231 236 250 259 225 113 255 90 276 278 62 325 21 72 32 79 149 142 146 158 141 144 143 151 151 150 149 147 149 149 148 148 151 152 147 137 134 137 142 143 146 140 136 138 132 130
222 207 249 251 246 235 249 274 148 311 227 221 297 277 50 78 335 34 125 156 143 152 160 136 145 139 154 163 150 150 147 149 149 148 151 152 152 143 135 137 142 149 147 152 146 141 148 149 146
243 248 234 231 242 255 266 256 159 224 286 267 245 281 271 134 95 113 146 165 160 153 148 152 146 146 147 161 154 150 147 149 148 150 154 156 155 145 142 146 152 153 151 162 157 153 162 184 181
221 240 238 237 241 237 246 256 229 249 252 272 271 254 260 98 146 140 157 168 172 153 139 153 148 150 149 153 151 151 148 149 149 153 157 156 155 146 147 151 155 156 158 169 168 164 183 200 217
240 222 243 250 258 249 235 235 252 254 258 252 256 279 276 195 113 152 165 168 173 155 152 156 169 159 151 153 154 152 153 152 152 156 157 158 156 151 154 160 163 164 169 172 173 171 192 211 231
247 256 258 247 256 259 261 259 234 256 267 271 269 262 255 64 95 162 179 173 171 164 162 163 175 175 176 164 159 159 159 159 158 160 161 159 154 156 163 164 173 171 173 175 180 185 196 213 225
234 256 245 244 249 249 261 275 283 250 271 261 274 230 21 34 166 194 189 180 179 174 168 173 178 176 184 176 169 168 170 163 158 160 163 158 189 178 167 193 157 170 179 182 187 198 205 217 230
228 227 243 256 284 281 274 292 275 274 252 245 246 255 98 232 214 233 198 192 190 183 179 175 183 175 184 178 167 189 186 191 192 190 181 200 198 181 199 164 164 175 184 189 195 202 213 224 245
219 245 255 257 264 294 287 279 274 260 256 258 256 232 196 210 207 214 232 209 197 188 189 182 183 169 189 185 165 186 186 194 196 197 182 210 195 179 199 162 181 194 198 201 196 198 223 226 241
235 250 254 268 264 260 259 270 264 260 260 272 273 272 255 175 242 204 225 231 206 193 194 189 178 172 203 188 173 184 191 191 191 195 189 198 209 184 198 211 191 192 182 214 198 200 221 231 244
238 244 245 246 262 260 265 264 267 263 266 260 264 268 264 240 251 255 242 243 226 193 188 191 176 179 195 216 179 191 199 189 193 189 188 202 206 189 203 209 226 188 208 188 216 224 213 222 236
228 236 257 249 250 248 256 264 261 256 252 254 249 252 256 251 243 252 248 244 243 213 189 195 184 175 191 215 191 195 196 186 202 195 188 209 202 193 198 210 208 222 218 211 207 213 216 218 239
253 253 246 239 243 244 252 262 256 258 253 250 240 242 244 245 245 243 242 234 225 240 203 189 191 178 196 204 218 200 192 226 204 205 186 189 213 202 216 205 207 210 211 228 231 243 223 251 248
232 237 251 238 212 213 212 263 277 258 247 227 242 246 247 247 239 236 238 241 246 225 196 192 192 186 189 199 204 210 221 205 217 215 189 186 200 234 187 232 211 215 205 199 220 221 228 233 237
218 239 222 224 184 229 182 254 268 312 270 256 239 240 244 242 233 236 239 236 238 201 214 196 197 200 186 206 206 215 226 238 234 218 216 185 203 199 227 218 231 222 223 222 227 236 245 246 253
219 216 254 214 153 225 213 237 262 257 259 255 243 239 235 235 231 223 225 232 234 188 197 192 191 203 174 192 212 213 254 329 332 326 248 179 194 202 211 240 265 227 213 260 258 290 291 279 282
245 258 226 205 206 214 255 262 267 271 275 269 253 236 249 237 230 219 218 193 180 157 148 176 168 173 124 180 211 230 184 2 340 274 279 14 175 72 321 290 271 241 252 174 230 230 232 254 249
246 245 245 251 236 237 263 250 261 280 260 268 311 252 239 232 218 208 141 171 182 160 157 186 179 151 115 97 219 183 232 161 133 190 228 86 31 230 191 169 285 306 247 218 222 243 263 261 239
232 230 226 242 219 220 266 265 252 244 230 249 256 288 306 231 208 192 156 185 175 174 168 174 179 154 151 153 248 247 202 124 167 208 176 193 202 232 223 179 204 223 213 215 208 207 225 264 321
218 214 239 243 250 248 226 252 238 192 195 201 215 281 2 346 199 205 190 167 180 176 174 169 173 156 156 189 185 235 243 228 231 225 179 180 202 221 209 196 211 226 190 222 196 202 211 215 261
233 212 220 225 232 248 254 246 271 169 204 230 161 157 75 12 9 339 324 310 199 201 188 178 169 176 187 194 205 213 221 227 239 188 188 193 185 198 200 187 183 211 194 175 223 175 197 251 245
229 239 236 243 236 230 234 246 235 234 187 201 130 97 53 26 41 13 337 293 272 282 204 182 199 196 193 188 199 221 213 224 233 194 197 193 187 197 203 184 168 168 196 156 186 205 209 241 315
228 198 216 214 217 235 223 220 242 75 85 100 84 74 53 349 49 15 18 345 318 232 262 219 208 230 212 210 216 201 207 204 229 194 214 186 174 205 158 167 170 176 175 168 195 187 244 214 248
207 215 247 210 207 227 199 223 200 116 100 97 125 64 31 20 26 14 25 6 346 317 244 224 204 209 209 216 221 208 217 218 221 196 209 199 179 192 167 175 170 167 168 182 183 213 213 234 235
212 215 240 271 276 263 307 237 130 156 149 163 162 164 69 59 46 22 39 21 32 28 342 247 208 191 192 200 207 208 198 198 209 194 195 212 179 153 158 177 168 179 188 195 193 223 246 227 244
239 233 219 230 257 238 205 205 247 164 181 160 158 137 109 85 65 62 41 64 63 70 58 49 20 136 111 103 192 197 205 200 168 157 186 160 179 159 150 182 184 194 207 213 213 228 229 226 242
206 230 223 255 239 257 255 115 355 40 1 157 135 115 139 74 75 79 70 46 57 66 70 71 81 87 95 127 146 157 163 145 156 154 174 144 144 193 167 195 205 215 222 225 229 246 271 267 230
260 265 220 233 213 162 307 42 300 172 216 81 135 134 100 344 67 94 104 73 74 68 84 63 42 52 66 90 104 109 116 120 118 140 148 148 181 208 234 231 228 233 236 233 229 239 251 253 249